User: anonymous   Login
Location: Champaign/Urbana Astronomical Society Observatory
(40.0333°N, 88.2833°W)
Time: 10:15:04
(UTC-05:00)
Language:

FALCONSAT 3 - Orbit

View from above orbital plane
View from above orbital plane
View from above satellite
View from above satellite

Ground track
Ground track

The orbit data is extracted from the following two-line orbital elements,

1 30776U 07006E   19143.36670975  .00001607  00000-0  46120-4 0  9998
2 30776  35.4348 258.6742 0003247 243.1804 116.8591 15.36098528676630
Epoch (UTC): 23 May 2019 08:48:03
Eccentricity: 0.0003247
inclination: 35.4348°
perigee height: 455 km
apogee height: 460 km
right ascension of ascending node: 258.6742°
argument of perigee: 243.1804°
revolutions per day: 15.36098528
mean anomaly at epoch: 116.8591°
orbit number at epoch: 67663

The dashed part of the orbit path shows where the satellite is in the earth's shadow,  

DLR